Torna al catalogo

COSMOS 2251 DEB

LostLEO
NORAD 35721·DEBRIS·🇷🇺 Russia

Lanciato Jun 16, 1993 da Plesetsk Cosmodrome

Loading…

Prossimi Passaggi (prossime 24 ore)

TLE

ObsoletoSource: Space-Track

Epoca: Aug 8, 2026, 09:03 UTC

1 35721U 93036AQS 26220.37708636  .00001386  00000-0  43043-3 0  9996
2 35721  73.9494  97.5448 0145279 191.7321 168.0437 14.36131404612134

Traccia COSMOS 2251 DEB in tempo reale con AllMySat

Download on the App Store